User: anonymous   Login
Location: Cedar Falls
(42.5280°N, 92.4450°W)
Time: 17:20:36
(UTC-05:00)
Language:

NOSS 3-1 (C) - Orbit

View from above orbital plane
View from above orbital plane
View from above satellite
View from above satellite

Ground track
Ground track

The orbit data is extracted from the following two-line orbital elements,

1 26907U 01040C   17147.92756077 0.00000000  00000-0  00000-0 0    05
2 26907  63.4128  80.5454 0368000 358.7275   1.2725 13.41268157    05
Epoch (UTC): 27 May 2017 22:15:41
Eccentricity: 0.0368000
inclination: 63.4128°
perigee height: 829 km
apogee height: 1380 km
right ascension of ascending node: 80.5454°
argument of perigee: 358.7275°
revolutions per day: 13.41268157
mean anomaly at epoch: 1.2725°
orbit number at epoch: 0

The dashed part of the orbit path shows where the satellite is in the earth's shadow,  

DLR